Regional Weather Roundup
Issued by NWS Sioux Falls, SD

Home | Current Version | Previous Version | Text Only | Print | Product List | Glossary On
Versions: 1 2 3 4 5 6 7 8 9 10 11 12 13 14 15 16 17 18 19 20 21 22 23 24 25 26 27 28 29 30 31 32 33 34 35 36 37 38 39 40 41 42 43 44 45 46 47 48 49 50
000
ASUS43 KFSD 140102
RWRFSD

WEATHER ROUNDUP FOR SE SOUTH DAKOTA/SW MINNESOTA/NW IOWA
NATIONAL WEATHER SERVICE SIOUX FALLS SD
800 PM CDT SUN JUL 13 2014

NOTE: "FAIR" INDICATES FEW OR NO CLOUDS BELOW 12,000 FEET WITH NO
SIGNIFICANT WEATHER AND OR OBSTRUCTIONS TO VISIBILITY.


SDZ038>040-050-052>070-140200-
SOUTHEAST SOUTH DAKOTA

CITY           SKY/WX    TMP DP  RH WIND       PRES   REMARKS
CHAMBERLAIN    MOSUNNY   77  55  46 N8G17     30.02R
HURON          SUNNY     74  48  39 NW12      29.99R
MADISON        FAIR      72  54  53 NW10      29.99S
MITCHELL       SUNNY     77  53  43 N12       29.99R
SIOUX FALLS    SUNNY     77  56  48 NW13      29.96S
WINNER         FAIR      81  54  39 N9        30.03R
YANKTON        SUNNY     79  63  57 NW10      29.97R
$$

MNZ071-072-080-081-089-090-097-098-140200-
SOUTHWEST MINNESOTA

CITY           SKY/WX    TMP DP  RH WIND       PRES   REMARKS
FAIRMONT       PTCLDY    75  54  46 N7        29.93S
JACKSON        CLEAR     73  54  49 NW10      29.95S
LUVERNE        CLEAR     77  57  50 NW7       29.96S
MARSHALL       CLEAR     73  48  40 NW8       29.94S
MONTEVIDEO     CLEAR     73  45  35 N10       29.95R
PIPESTONE      CLEAR     75  52  43 NW9G16    29.98R
REDWOOD FALLS  CLEAR     73  49  42 NW7       29.93R
TRACY          CLEAR     72  54  53 NW6       29.96R
WINDOM         CLEAR     73  54  49 NW9       29.95S
WORTHINGTON    CLEAR     73  55  53 NW10      29.97S
$$

IAZ001>003-012>014-020>022-031-032-NEZ013-014-SDZ071-140200-
NORTHWEST IOWA

CITY           SKY/WX    TMP DP  RH WIND       PRES   REMARKS
CHEROKEE       MOCLDY    76  64  67 W3        29.95S
DENISON        CLEAR     79  66  65 W5        29.95S
ESTHERVILLE    CLEAR     75  59  57 N8        29.94R
LE MARS        CLEAR     79  66  65 SW5       29.95F
ORANGE CITY    MOCLDY    75  64  69 W6        29.96S
SHELDON        PTCLDY    75  61  60 NW6       29.95R
SIOUX CITY     CLEAR     80  68  66 SW3       29.95S
SPENCER        PTCLDY    75  63  66 W7        29.95S
STORM LAKE     CLEAR     77  68  73 W6        29.97S
$$

ABBREVIATIONS USED IN REMARKS
   TC - TEMPERATURE IN CELSIUS
  WCI - WIND CHILL INDEX
   HX - HEAT INDEX
  VSB - VISIBILITY




USA.gov is the U.S. government's official web portal to all federal, state and local government web resources and services.